Regional Weather Roundup
Issued by NWS

Home | Current Version | Previous Version | Graphics & Text | Print | Product List | Glossary On
Versions: 1 2 3 4 5 6 7 8 9 10 11 12 13 14 15 16 17 18 19 20 21 22 23 24 25 26 27 28 29 30 31 32 33 34 35 36 37 38 39 40 41 42 43 44 45 46 47 48 49 50
000
ASUS43 KDTX 140010
RWRMI
MICHIGAN HOURLY REGIONAL WEATHER ROUNDUP
NATIONAL WEATHER SERVICE DETROIT/PONTIAC MI
700 PM EST SAT FEB 13 2016

NOTE: "FAIR" INDICATES FEW OR NO CLOUDS BELOW 12,000 FEET WITH NO
SIGNIFICANT WEATHER AND/OR OBSTRUCTION TO VISIBILITY.

MIZ047>049-052>055-059>063-066>070-074>076-081>083-140100-
SOUTHEAST LOWER MICHIGAN

CITY           SKY/WX    TMP DP  RH WIND       PRES   REMARKS
ADRIAN         MOCLDY    14   2  58 NW12      30.45S WCI   0
6HR MIN TEMP:  13; 6HR MAX TEMP:  16; 6HR PCP: TRACE;

ALMA           CLOUDY    13   7  76 NW5       30.46R WCI   5
6HR MIN TEMP:  13; 6HR MAX TEMP:  18;

ANN ARBOR      MOCLDY    12   1  61 N7        30.43S WCI   1
BAD AXE        PTCLDY     3  -4  70 W7        30.44R WCI  -9
CARO           PTCLDY    -4 -11  71 CALM      30.44S
DETROIT CITY   MOCLDY    11  -2  56 N7        30.46R WCI   0
6HR MIN TEMP:  11; 6HR MAX TEMP:  16;

DETROIT        PTCLDY    11   4  73 W5        30.46S WCI   3
6HR MIN TEMP:  10; 6HR MAX TEMP:  15; 6HR PCP:  0.01;

FLINT          MOCLDY     9  -1  64 CALM      30.45R
6HR MIN TEMP:   8; 6HR MAX TEMP:  14;

GROSSE ILE     PTCLDY    10   3  72 NW3       30.45S
HILLSDALE      LGT SNOW  12   4  71 W10G17    30.42R WCI  -1
6HR MIN TEMP:  12; 6HR MAX TEMP:  14;

HOWELL         CLEAR      8   2  76 CALM      30.43R

CITY           SKY/WX    TMP DP  RH WIND       PRES   REMARKS
JACKSON        CLOUDY    13   0  56 NW6       30.43R WCI   4
6HR MIN TEMP:  12; 6HR MAX TEMP:  15; 6HR PCP: TRACE;

LAMBERTVILLE   CLOUDY    15   6  68 NW5       30.46S WCI   7
6HR MIN TEMP:  14; 6HR MAX TEMP:  17;

LANSING        PTCLDY    11  -2  56 W9        30.45S WCI  -2
6HR MIN TEMP:  11; 6HR MAX TEMP:  15; 6HR PCP: TRACE;

LAPEER         MOCLDY     5  -5  64 CALM      30.44S
6HR MIN TEMP:   5; 6HR MAX TEMP:  10;

MASON          MOCLDY    10   0  62 NW5       30.44R WCI   2
MONROE         CLOUDY    15   3  59 NW5       30.45S WCI   7
6HR MIN TEMP:  15; 6HR MAX TEMP:  18;

MT. CLEMENS    PTCLDY     9  -4  56 N5        30.45R WCI   0
6HR MIN TEMP:   8; 6HR MAX TEMP:  12;

PONTIAC        PTCLDY     9   1  70 NW7       30.42R WCI  -2
6HR MIN TEMP:   9; 6HR MAX TEMP:  13;

PORT HOPE        N/A     10  -4  53 NW15G24   30.42R WCI  -7
6HR MIN TEMP:   5; 6HR MAX TEMP:  11;

PORT HURON     CLEAR      1  -6  71 CALM      30.47R
TRI CITIES     PTCLDY     9  -3  58 CALM      30.46R
6HR MIN TEMP:   6; 6HR MAX TEMP:  13; 6HR PCP: TRACE;

MIDLAND        FAIR       7  -4  60 CALM      30.45R
6HR MIN TEMP:   7; 6HR MAX TEMP:  14;

TROY           MOCLDY    12   1  60 N3        30.47R
SAGINAW HB     PTCLDY     3  -2  78 CALM      30.46R
$$
MIZ043>046-050>051-056>058-064>065-071>073-077>080-140100-
SOUTHWEST LOWER MICHIGAN

CITY           SKY/WX    TMP DP  RH WIND       PRES   REMARKS
BATTLE CREEK   CLOUDY    13   2  61 NW9       30.46R WCI   1
6HR MIN TEMP:  13; 6HR MAX TEMP:  16; 6HR PCP: TRACE;

BENTON HARBOR  CLOUDY    15   3  59 W8        30.51S WCI   4
6HR MIN TEMP:  14; 6HR MAX TEMP:  15; 6HR PCP: TRACE;

BIG RAPIDS     CLEAR     10  -3  56 W3        30.43R
6HR MIN TEMP:  10; 6HR MAX TEMP:  14;

COLDWATER      CLOUDY    13   2  62 NW8       30.45S WCI   2
6HR MIN TEMP:  13; 6HR MAX TEMP:  17;

FREMONT        CLOUDY    11   1  64 NW5       30.47S WCI   3
HOLLAND        FLURRIES  14   8  77 NE6       30.49S WCI   5
6HR MIN TEMP:  14; 6HR MAX TEMP:  17; 6HR PCP: TRACE;

GRAND RAPIDS   FLURRIES  13   2  61 NW13      30.47R WCI  -2
6HR MIN TEMP:  13; 6HR MAX TEMP:  17; 6HR PCP: TRACE;

IONIA          CLOUDY    13   0  55 W8        30.45R WCI   2
6HR MIN TEMP:  13; 6HR MAX TEMP:  16;

KALAMAZOO      CLOUDY    13   4  67 W7        30.47S WCI   3
6HR MIN TEMP:  13; 6HR MAX TEMP:  17; 6HR PCP: TRACE;

LUDINGTON      CLOUDY    13   3  64 NW6       30.48F WCI   4
6HR MIN TEMP:  11; 6HR MAX TEMP:  13;

MARSHALL       MOCLDY    13   4  67 NW8       30.44R WCI   1
6HR MIN TEMP:  12; 6HR MAX TEMP:  17;

MOUNT PLEASANT CLOUDY    12   3  66 CALM      30.44R
6HR MIN TEMP:   9; 6HR MAX TEMP:  15;

MUSKEGON       LGT SNOW  13   3  64 N6        30.50R VSB 1   WCI   4
6HR MIN TEMP:  13; 6HR MAX TEMP:  15; 6HR PCP:  0.02;

SOUTH HAVEN    CLOUDY    15   5  66 N7        30.50S WCI   5
$$
MIZ016>042-140100-
NORTHERN LOWER MICHIGAN

CITY           SKY/WX    TMP DP  RH WIND       PRES   REMARKS
ALPENA         PTCLDY     2 -10  57 SW3       30.43R
6HR MIN TEMP:   2; 6HR MAX TEMP:   7;

BEAVER ISLAND  CLOUDY    12   2  62 NW7G20    30.43S WCI   2
6HR MIN TEMP:   8; 6HR MAX TEMP:  12;

BELLAIRE       LGT SNOW   9   6  87 CALM      30.45R VSB 3/4
6HR MIN TEMP:   6; 6HR MAX TEMP:  11;

CADILLAC       CLEAR      6   1  81 SW5       30.38R WCI  -3
CHARLEVOIX     LGT SNOW   9   6  85 CALM      30.46R
6HR MIN TEMP:   4; 6HR MAX TEMP:  10;

FRANKFORT      CLOUDY    13   2  61 NW7       30.46F WCI   3
GAYLORD        MOCLDY     3  -3  76 W3        30.36R
6HR MIN TEMP:   1; 6HR MAX TEMP:   9; 6HR PCP: TRACE;

GRAYLING       CLOUDY     1  -6  70 CALM      30.39S
6HR MIN TEMP:   1; 6HR MAX TEMP:  10;

HARBOR SPRINGS CLEAR      6  -1  70 W3        30.42S
HOUGHTON LAKE  CLOUDY     8  -1  66 W5        30.39R WCI   0
6HR MIN TEMP:   4; 6HR MAX TEMP:  10;

MANISTEE       CLOUDY    14   0  52 N6        30.46F WCI   5
OSCODA         CLEAR      4  -9  54 NW5       30.44R WCI  -5
6HR MIN TEMP:   4; 6HR MAX TEMP:   9;

PELLSTON       CLEAR      0  -6  76 CALM      30.42S
6HR MIN TEMP:   0; 6HR MAX TEMP:   8; 6HR PCP: TRACE;

ROGERS CITY    CLOUDY     4  -7  60 W7        30.43R WCI  -8
TRAVERSE CITY  LGT SNOW  13   6  74 W9        30.44R WCI   1
6HR MIN TEMP:   8; 6HR MAX TEMP:  13; 6HR PCP:  0.01;

$$
MIZ007>008-015-140100-
EASTERN UPPER MICHIGAN

CITY           SKY/WX    TMP DP  RH WIND       PRES   REMARKS
KINROSS        CLOUDY     3   0  85 CALM      30.39S
6HR MIN TEMP:   1; 6HR MAX TEMP:   9;

MACKINAC ISLAN MOCLDY     6   0  73 W6        30.41R WCI  -4
6HR MIN TEMP:   0; 6HR MAX TEMP:   8;

NEWBERRY       MOCLDY     5   3  89 W6        30.39R WCI  -5
6HR MIN TEMP:   3; 6HR MAX TEMP:   9;

S. S. MARIE    CLOUDY     2  -4  76 CALM      30.41R
6HR MIN TEMP:  -4; 6HR MAX TEMP:   3; 6HR PCP:  0.01;

MUNISING         N/A     10   5  80 W8        30.44S WCI  -2
6HR MIN TEMP:  10; 6HR MAX TEMP:  11; 6HR PCP:  0.01;

$$
MIZ004>006-011>014-085-140100-
CENTRAL UPPER MICHIGAN

CITY           SKY/WX    TMP DP  RH WIND       PRES   REMARKS
MANISTIQUE     CLOUDY     8   1  74 W8        30.44S WCI  -5
6HR MIN TEMP:   7; 6HR MAX TEMP:  13;

ESCANABA       CLEAR      7 -15  36 CALM      30.46R
6HR MIN TEMP:   7; 6HR MAX TEMP:  12;

MENOMINEE      CLEAR      9  -4  56 SW6       30.46R WCI  -1
6HR MIN TEMP:   9; 6HR MAX TEMP:  14;

SAWYER-GWINN   CLEAR      1  -6  71 N5        30.39S WCI  -8
$$
MIZ001>003-009>011-084-140100-
WESTERN UPPER MICHIGAN

CITY           SKY/WX    TMP DP  RH WIND       PRES   REMARKS
IRON MOUNTAIN  CLEAR      5  -8  55 N3        30.39S
6HR MIN TEMP:   4; 6HR MAX TEMP:  12; 6HR PCP: TRACE;

HOUGHTON       LGT SNOW   2  -2  83 W8        30.39F FOG     WCI -12
6HR MIN TEMP:   3; 6HR MAX TEMP:   7; 6HR PCP: TRACE;

COPPER HARBOR    N/A      9   1  70 NW6       30.43F WCI  -1
6HR MIN TEMP:   6; 6HR MAX TEMP:  10; 6HR PCP:  0.01;

IRONWOOD       CLOUDY     0  -8  71 CALM      30.37F
6HR MIN TEMP:   0; 6HR MAX TEMP:   7;

$$

ABBREVIATIONS USED IN REMARKS
   TC - TEMPERATURE IN CELSIUS
  WCI - WIND CHILL INDEX
   HX - HEAT INDEX
  VSB - VISIBILITY




USA.gov is the U.S. government's official web portal to all federal, state and local government web resources and services.